{"data":{"norad_id":39090,"intl_designator":"2013-009E","name":"STRAND-1","alt_names":[],"object_type":"PAYLOAD","status":"ACTIVE","operator":null,"country":"UK","launch_date":"2013-02-25","launch_site_code":"SRILR","launch_vehicle":null,"mission":null,"orbit_class":"UNKNOWN","rcs_meters":0.0582,"size_class":null,"mass_kg":null,"dimensions":null,"purposes":["comms","tech_demo"],"wikipedia_slug":null,"has_3d_model":false,"image_url":null,"decayed_at":null,"tle_current":{"epoch":"2026-05-24T10:53:55.218912Z","epoch_age_seconds":118100,"freshness":"FRESH","line1":"1 39090U 13009E   26144.45411133  .00000206  00000+0  83831-4 0  9997","line2":"2 39090  98.3917 325.2736 0007587 307.1154  52.9339 14.37146928693651","mean_motion":14.37146928,"eccentricity":0.0007587,"inclination_deg":98.3917,"raan_deg":325.2736,"arg_perigee_deg":307.1154,"mean_anomaly_deg":52.9339,"bstar":8.3831e-5,"rev_number":69365,"period_min":100.19852333428,"perigee_km":762.51886198659,"apogee_km":773.36232012326,"semimajor_km":7146.0775910549,"source":"CELESTRAK","updated_at":"2026-05-25T13:38:25.490831Z"}}}